Voltar ao catálogo

SL-8 R/B

AtivoPO
NORAD 12804·ROCKET BODY·🇷🇺 Russia

Lançado Sep 4, 1981 de Plesetsk Cosmodrome

Loading…

Próximas Passagens (próximas 24 horas)

TLE

AtualizadoSource: Space-Track

Época: Sep 14, 2026, 13:42 UTC

1 12804U 81087B   26257.57125044  .00000129  00000-0  91964-4 0  9994
2 12804  82.9279 296.3656 0041696 213.3750 310.3829 13.89800867281971

Acompanhe SL-8 R/B em tempo real com AllMySat

Download on the App Store